Retour au catalogue

USA 362

ActifMilitaireVLEO
NORAD 59822·PAYLOAD·🇺🇸 United States

Lancé May 22, 2024 depuis Vandenberg Space Force Base

Loading…

Prochains Passages (prochaines 24 heures)

TLE

PériméSource: Mike McCants

Époque: Sep 5, 2026, 18:50 UTC

1 59822U 24096J   26248.78528741 0.00000000  00000-0  00000-0 0    04
2 59822  70.0190 124.4127 0002000 244.8087 115.1913 14.96713508    06

Suivez USA 362 en temps réel avec AllMySat

Download on the App Store